Date String (YYYY-MM-DD hh:mm:ss) UTC,Instrument flags,absolute air pressure of the measurement (hPa),sample flow rate (lpm),inlet stack bypass flow (lpm),air temperature of the measurement (°C),ambient temperature measured by the external sensor (°C),aerosol sample conditioner tube jacket temperature (°C),OPC LED temperature (°C),internal box temperature (°C),relative humidity of the measurement (%),span deviation,mass concentration of particles derived from Lorenz-Mie calculation of OPC scattering (μg/m³),mass concentration of particles derived from Lorenz-Mie calculation of OPC scattering (μg/m³),mass concentration of particles derived from Lorenz-Mie calculation of OPC scattering (μg/m³)
DateTimeUTC,F1_M11,P_M11,Q1_M11,Q2_M11,T1_M11,T2_M11,T3_M11,T4_M11,T5_M11,U1_M11,ZSPAN_M11,X2_M11,X0_M11,X1_M11
2023-08-30 22:00:00,SystemResetWarning,0828.9,5.01,000.00,025.4,022.6,000.0,033.6,026.8,27.1,0000.0,0004.87,0014.08,0004.17
2023-08-30 22:01:00,SystemResetWarning,0828.8,5.01,000.00,025.4,022.8,000.0,033.6,026.8,27.0,0000.0,0004.84,0013.78,0004.14
2023-08-30 22:02:00,SystemResetWarning,0828.8,5.00,000.00,025.4,023.2,000.0,033.6,027.0,26.2,0000.0,0004.79,0013.53,0004.12
2023-08-30 22:03:00,SystemResetWarning,0828.8,4.99,000.00,025.5,023.7,000.0,033.7,027.2,26.2,0000.0,0004.78,0013.24,0004.10
2023-08-30 22:04:00,SystemResetWarning,0828.8,4.99,000.00,025.5,024.0,000.0,033.7,027.3,26.3,0000.0,0004.76,0012.71,0004.10
2023-08-30 22:05:00,SystemResetWarning,0828.8,4.99,000.00,025.5,023.2,000.0,033.6,027.0,26.9,0000.0,0004.75,0011.73,0004.10
2023-08-30 22:06:00,SystemResetWarning,0828.7,5.01,000.00,025.4,022.4,000.0,033.6,026.7,26.9,0000.0,0004.77,0011.73,0004.10
2023-08-30 22:07:00,SystemResetWarning,0828.7,5.01,000.00,025.4,022.5,000.0,033.5,026.8,27.1,0000.0,0004.75,0011.08,0004.09
2023-08-30 22:08:00,SystemResetWarning,0828.7,5.00,000.00,025.4,022.9,000.0,033.6,026.8,27.6,0000.0,0004.71,0010.44,0004.07
2023-08-30 22:09:00,SystemResetWarning,0828.7,5.00,000.00,025.4,023.4,000.0,033.6,027.0,26.4,0000.0,0004.70,0009.64,0004.06
2023-08-30 22:10:00,SystemResetWarning,0828.7,5.00,000.00,025.5,023.8,000.0,033.6,027.2,26.4,0000.0,0004.69,0009.84,0004.05
2023-08-30 22:11:00,SystemResetWarning,0828.7,5.00,000.00,025.6,024.1,000.0,033.7,027.3,26.6,0000.0,0004.64,0010.06,0004.04
2023-08-30 22:12:00,SystemResetWarning,0828.7,4.98,000.00,025.5,023.3,000.0,033.6,027.0,27.1,0000.0,0004.61,0010.80,0004.02
2023-08-30 22:13:00,SystemResetWarning,0828.7,5.00,000.00,025.4,022.2,000.0,033.6,026.6,26.8,0000.0,0004.59,0010.60,0004.01
2023-08-30 22:14:00,SystemResetWarning,0828.7,5.00,000.00,025.3,022.0,000.0,033.5,026.6,27.3,0000.0,0004.55,0010.10,0003.99
2023-08-30 22:15:00,SystemResetWarning,0828.7,5.01,000.00,025.3,022.3,000.0,033.5,026.7,28.3,0000.0,0004.53,0010.03,0003.97
2023-08-30 22:16:00,SystemResetWarning,0828.7,5.01,000.00,025.3,022.8,000.0,033.5,026.8,27.0,0000.0,0004.52,0010.04,0003.95
2023-08-30 22:17:00,SystemResetWarning,0828.6,4.99,000.00,025.4,023.4,000.0,033.6,027.1,26.9,0000.0,0004.51,0010.25,0003.93
2023-08-30 22:18:00,SystemResetWarning,0828.7,5.01,000.00,025.5,024.0,000.0,033.6,027.3,26.2,0000.0,0004.47,0010.33,0003.90
2023-08-30 22:19:00,SystemResetWarning,0828.6,4.99,000.00,025.5,023.7,000.0,033.6,027.2,24.6,0000.0,0004.46,0010.51,0003.87
2023-08-30 22:20:00,SystemResetWarning,0828.6,4.99,000.00,025.4,022.7,000.0,033.6,026.8,23.6,0000.0,0004.41,0011.44,0003.84
2023-08-30 22:21:00,SystemResetWarning,0828.6,5.01,000.00,025.4,022.5,000.0,033.5,026.8,23.5,0000.0,0004.35,0011.68,0003.81
2023-08-30 22:22:00,SystemResetWarning,0828.6,5.01,000.00,025.4,022.8,000.0,033.5,026.8,24.5,0000.0,0004.34,0011.98,0003.79
2023-08-30 22:23:00,SystemResetWarning,0828.6,5.00,000.00,025.4,023.2,000.0,033.6,027.0,25.8,0000.0,0004.30,0011.06,0003.76
2023-08-30 22:24:00,SystemResetWarning,0828.6,5.00,000.00,025.4,023.7,000.0,033.6,027.2,22.7,0000.0,0004.26,0010.67,0003.73
2023-08-30 22:25:00,SystemResetWarning,0828.6,4.99,000.00,025.5,023.9,000.0,033.6,027.2,23.9,0000.0,0004.22,0010.49,0003.70
2023-08-30 22:26:00,SystemResetWarning,0828.6,4.98,000.00,025.4,023.0,000.0,033.6,026.8,21.0,0000.0,0004.17,0011.09,0003.67
2023-08-30 22:27:00,SystemResetWarning,0828.6,5.01,000.00,025.3,022.5,000.0,033.5,026.7,20.3,0000.0,0004.11,0011.10,0003.64
2023-08-30 22:28:00,SystemResetWarning,0828.6,5.02,000.00,025.3,022.7,000.0,033.5,026.8,20.6,0000.0,0004.04,0011.14,0003.62
2023-08-30 22:29:00,SystemResetWarning,0828.6,4.98,000.00,025.3,023.1,000.0,033.5,026.9,20.6,0000.0,0003.99,0011.49,0003.61
2023-08-30 22:30:00,SystemResetWarning,0828.5,5.00,000.00,025.4,023.6,000.0,033.6,027.1,20.1,0000.0,0003.96,0011.56,0003.58
2023-08-30 22:31:00,SystemResetWarning,0828.5,5.00,000.00,025.5,024.0,000.0,033.6,027.3,20.3,0000.0,0003.95,0011.30,0003.57
2023-08-30 22:32:00,SystemResetWarning,0828.5,4.99,000.00,025.5,023.5,000.0,033.6,027.0,20.2,0000.0,0003.94,0010.07,0003.55
2023-08-30 22:33:00,SystemResetWarning,0828.5,5.00,000.00,025.4,022.5,000.0,033.5,026.7,20.4,0000.0,0003.88,0009.45,0003.53
2023-08-30 22:34:00,SystemResetWarning,0828.5,5.01,000.00,025.3,022.6,000.0,033.5,026.8,21.1,0000.0,0003.87,0009.24,0003.52
2023-08-30 22:35:00,SystemResetWarning,0828.5,5.00,000.00,025.3,023.0,000.0,033.5,026.9,21.4,0000.0,0003.89,0009.59,0003.52
2023-08-30 22:36:00,SystemResetWarning,0828.5,4.99,000.00,025.4,023.4,000.0,033.6,027.0,21.4,0000.0,0003.90,0009.71,0003.52
2023-08-30 22:37:00,SystemResetWarning,0828.5,4.99,000.00,025.5,023.9,000.0,033.6,027.2,20.6,0000.0,0003.93,0009.54,0003.51
2023-08-30 22:38:00,SystemResetWarning,0828.5,5.00,000.00,025.5,023.8,000.0,033.6,027.2,20.2,0000.0,0003.93,0009.26,0003.51
2023-08-30 22:39:00,SystemResetWarning,0828.4,5.00,000.00,025.4,022.8,000.0,033.6,026.7,20.8,0000.0,0003.92,0008.76,0003.51
2023-08-30 22:40:00,SystemResetWarning,0828.4,5.00,000.00,025.3,022.5,000.0,033.5,026.7,21.9,0000.0,0003.95,0008.41,0003.51
2023-08-30 22:41:00,SystemResetWarning,0828.4,5.01,000.00,025.3,022.9,000.0,033.5,026.8,22.1,0000.0,0003.96,0008.15,0003.52
2023-08-30 22:42:00,SystemResetWarning,0828.4,5.01,000.00,025.4,023.3,000.0,033.5,027.0,21.9,0000.0,0003.96,0007.84,0003.53
2023-08-30 22:43:00,SystemResetWarning,0828.4,4.99,000.00,025.5,023.8,000.0,033.6,027.2,21.3,0000.0,0003.99,0007.96,0003.54
2023-08-30 22:44:00,SystemResetWarning,0828.4,5.00,000.00,025.5,024.1,000.0,033.6,027.3,20.6,0000.0,0004.04,0008.10,0003.54
2023-08-30 22:45:00,SystemResetWarning,0828.4,4.99,000.00,025.5,023.3,000.0,033.6,027.0,19.3,0000.0,0004.07,0008.40,0003.55
2023-08-30 22:46:00,SystemResetWarning,0828.4,5.00,000.00,025.4,022.1,000.0,033.5,026.6,19.7,0000.0,0004.07,0008.85,0003.56
2023-08-30 22:47:00,SystemResetWarning,0828.4,5.01,000.00,025.3,022.0,000.0,033.5,026.6,19.8,0000.0,0004.06,0009.30,0003.56
2023-08-30 22:48:00,SystemResetWarning,0828.4,5.00,000.00,025.3,022.4,000.0,033.5,026.7,20.2,0000.0,0004.04,0009.02,0003.55
2023-08-30 22:49:00,SystemResetWarning,0828.4,4.99,000.00,025.3,022.9,000.0,033.5,026.9,20.4,0000.0,0004.02,0008.98,0003.54
2023-08-30 22:50:00,SystemResetWarning,0828.4,5.00,000.00,025.4,023.5,000.0,033.6,027.1,19.8,0000.0,0004.06,0009.09,0003.54
2023-08-30 22:51:00,SystemResetWarning,0828.4,5.01,000.00,025.5,024.0,000.0,033.6,027.3,19.6,0000.0,0004.07,0009.05,0003.55
2023-08-30 22:52:00,SystemResetWarning,0828.4,5.00,000.00,025.5,023.8,000.0,033.6,027.3,20.0,0000.0,0004.08,0009.63,0003.55
2023-08-30 22:53:00,SystemResetWarning,0828.3,4.99,000.00,025.5,022.8,000.0,033.5,026.9,19.7,0000.0,0004.08,0009.61,0003.53
2023-08-30 22:54:00,SystemResetWarning,0828.4,5.00,000.00,025.4,022.7,000.0,033.5,026.9,20.3,0000.0,0004.01,0009.36,0003.50
2023-08-30 22:55:00,SystemResetWarning,0828.3,5.01,000.00,025.4,023.1,000.0,033.5,027.0,20.1,0000.0,0003.95,0009.30,0003.46
2023-08-30 22:56:00,SystemResetWarning,0828.3,5.01,000.00,025.5,023.6,000.0,033.5,027.1,20.3,0000.0,0003.85,0008.97,0003.38
2023-08-30 22:57:00,SystemResetWarning,0828.3,4.99,000.00,025.5,023.9,000.0,033.6,027.3,20.1,0000.0,0003.79,0008.49,0003.34
2023-08-30 22:58:00,SystemResetWarning,0828.3,4.99,000.00,025.5,023.2,000.0,033.6,027.1,20.0,0000.0,0003.74,0008.12,0003.29
2023-08-30 22:59:00,SystemResetWarning,0828.3,5.01,000.00,025.4,022.2,000.0,033.5,026.7,20.4,0000.0,0003.67,0007.97,0003.26
